GLOBALSTAR M068 [P]

Last updated on Wed May 04 2016 23:40:44 GMT+0000 (Coordinated Universal Time)

1 32266U 07048D 16125.79509039 -.00000091 00000-0 73974-4 0 9990 2 32266 51.9903 12.6769 0000763 21.1198 91.1964 12.62676040397101
UTC large
Height (km)
Speed (km/s)
/
Latitude / Longitude
Inclination (degrees)
Orbital Period (minutes)
Azimuth
Elevation
Range (km)
Doppler Factor

Next 0 passes for location: London (51.5072 / 0.1276)

Sorry there are no passes over London.